DW7955 Weather Reports


time (UTC)temp
F
wind
direction
speed
knots
gust
knots
rain 1hr
in
rain 24hr
in
rain mn
in
humidity
%
barometer
mb
20260508094519 50 16 0.0 0.0 0.00 0.00 0.00 64 1009.2
20260508093018 50 16 0.0 0.0 0.00 0.00 0.00 63 1009.2
20260508091516 52 16 0.0 0.0 0.00 0.00 0.00 60 1009.2
20260508090015 53 16 0.0 0.0 0.00 0.00 0.00 59 1009.1
20260508084507 54 16 0.0 0.0 0.00 0.00 0.00 57 1009.3
20260508083002 56 16 0.0 1.7 0.00 0.00 0.00 54 1009.2
20260508081602 57 351 1.7 5.2 0.00 0.00 0.00 48 1009.4
20260508080111 57 40 2.6 7.0 0.00 0.00 0.00 48 1009.4
20260508074557 57 20 4.3 7.8 0.00 0.00 0.00 48 1009.3
20260508073058 57 1 3.5 6.1 0.00 0.00 0.00 49 1009.5
20260508071600 57 36 2.6 5.2 0.00 0.00 0.00 48 1009.6
20260508070137 57 33 2.6 6.1 0.00 0.00 0.00 49 1009.8
20260508064605 58 13 2.6 4.3 0.00 0.00 0.00 47 1009.9
20260508063050 58 25 2.6 6.1 0.00 0.00 0.00 45 1009.8
20260508061549 59 26 5.2 8.7 0.00 0.00 0.00 43 1009.7
20260508060045 58 32 5.2 10.4 0.00 0.00 0.00 46 1009.8
20260508054544 58 1 1.7 4.3 0.00 0.00 0.00 46 1009.6
20260508053045 58 340 0.0 2.6 0.00 0.00 0.00 45 1009.4
20260508051542 57 274 1.7 5.2 0.00 0.00 0.00 50 1009.6
20260508050041 57 290 0.0 0.9 0.00 0.00 0.00 49 1009.8
20260508044541 57 290 0.0 0.9 0.00 0.00 0.00 49 1009.9
20260508043056 57 261 0.0 3.5 0.00 0.00 0.00 51 1010.0
20260508041540 58 40 0.0 0.0 0.00 0.00 0.00 44 1009.9
20260508040039 59 40 0.0 1.7 0.00 0.00 0.00 44 1010.0
20260508034540 57 31 0.9 2.6 0.00 0.00 0.00 44 1009.9
20260508033039 57 31 0.0 0.0 0.00 0.00 0.00 49 1009.8
20260508031545 58 31 0.0 0.9 0.00 0.00 0.00 47 1009.7
20260508030049 59 31 0.0 0.0 0.00 0.00 0.00 43 1009.6
20260508024536 59 31 0.0 2.6 0.00 0.00 0.00 41 1009.5
20260508023042 60 31 0.0 0.0 0.00 0.00 0.00 39 1009.2
20260508021538 61 31 0.0 0.9 0.00 0.00 0.00 40 1009.1
20260508020035 64 15 0.9 1.7 0.00 0.00 0.00 37 1009.1
20260508014534 66 15 0.0 0.0 0.00 0.00 0.00 31 1008.7
20260508013033 67 331 2.6 7.0 0.00 0.00 0.00 28 1008.5
20260508011532 67 257 0.0 2.6 0.00 0.00 0.00 28 1008.8
20260508010031 67 78 0.9 8.7 0.00 0.00 0.00 28 1008.9
20260508004529 67 98 5.2 9.6 0.00 0.00 0.00 27 1009.0
20260508003027 68 59 3.5 9.6 0.00 0.00 0.00 28 1009.3
20260508001528 69 88 4.3 8.7 0.00 0.00 0.00 27 1009.3
20260508000024 69 91 5.2 9.6 0.00 0.00 0.00 25 1009.6
20260507234524 69 76 5.2 8.7 0.00 0.00 0.00 24 1009.6
20260507233024 69 53 8.7 11.3 0.00 0.00 0.00 24 1009.7
20260507231526 71 11 2.6 6.1 0.00 0.00 0.00 22 1010.0
20260507230021 72 291 0.9 6.1 0.00 0.00 0.00 22 1010.1
20260507224518 72 198 5.2 9.6 0.00 0.00 0.00 21 1010.2
20260507223017 73 164 3.5 9.6 0.00 0.00 0.00 21 1010.3
20260507221514 72 210 4.3 10.4 0.00 0.00 0.00 21 1010.7
20260507220012 72 105 1.7 8.7 0.00 0.03 0.00 21 1011.0
20260507214508 73 228 0.0 4.3 0.00 0.03 0.00 21 1011.5
20260507213004 71 200 4.3 10.4 0.00 0.03 0.00 23 1011.8
20260507211503 71 222 1.7 8.7 0.00 0.03 0.00 22 1012.3
20260507210100 70 335 0.9 6.1 0.00 0.03 0.00 23 1012.7
20260507204601 70 238 3.5 9.6 0.00 0.03 0.00 23 1013.2
20260507203055 70 205 1.7 8.7 0.00 0.03 0.00 21 1013.7
20260507201601 69 221 2.6 7.0 0.00 0.03 0.00 22 1014.1
20260507200054 69 300 1.7 7.0 0.00 0.07 0.00 18 1014.5
20260507194550 69 267 3.5 8.7 0.00 0.07 0.00 21 1014.7
20260507193042 68 241 2.6 8.7 0.00 0.07 0.00 20 1015.0
20260507191545 67 189 2.6 7.0 0.00 0.07 0.00 21 1015.2
20260507190036 66 257 0.9 5.2 0.00 0.12 0.00 22 1015.6
20260507184536 66 311 2.6 10.4 0.00 0.12 0.00 24 1016.0
20260507183038 65 298 3.5 10.4 0.00 0.12 0.00 27 1016.4
20260507181527 64 257 4.3 14.8 0.00 0.12 0.00 27 1016.8
20260507180024 64 231 6.1 13.9 0.00 0.15 0.00 29 1017.1
20260507174527 63 231 7.8 15.6 0.00 0.15 0.00 28 1017.4
20260507173017 62 215 5.2 15.6 0.00 0.15 0.00 30 1017.8
20260507171519 61 233 9.6 15.6 0.00 0.15 0.00 28 1018.1
20260507170011 60 217 7.0 15.6 0.00 0.19 0.00 28 1018.4
20260507164509 60 244 3.5 10.4 0.00 0.19 0.00 34 1018.6
20260507163003 58 211 6.1 17.4 0.00 0.19 0.00 35 1018.8
20260507161608 57 234 7.0 18.2 0.00 0.19 0.00 35 1019.0
20260507160056 56 240 8.7 17.4 0.00 0.23 0.00 35 1019.3
20260507154552 55 246 6.1 16.5 0.00 0.23 0.00 38 1019.3
20260507153050 54 271 4.3 13.9 0.00 0.23 0.00 38 1019.6
20260507151546 53 252 5.2 16.5 0.00 0.23 0.00 37 1019.9
20260507150046 52 234 5.2 13.9 0.00 0.23 0.00 39 1020.2
20260507144540 52 246 6.1 13.9 0.00 0.23 0.00 37 1020.1
20260507143055 49 188 4.3 12.2 0.00 0.23 0.00 43 1020.4
20260507141547 48 271 2.6 10.4 0.00 0.23 0.00 49 1020.7
20260507140028 46 318 4.3 13.9 0.00 0.24 0.00 49 1021.0
20260507134524 44 310 2.6 7.8 0.00 0.24 0.00 56 1021.3
20260507133020 42 274 2.6 7.8 0.00 0.24 0.00 57 1021.5
20260507131515 41 240 1.7 8.7 0.00 0.24 0.00 61 1021.7
20260507130029 40 279 1.7 6.1 0.00 0.24 0.00 63 1021.7
20260507124511 39 260 0.0 7.0 0.00 0.24 0.00 64 1021.6
20260507123006 39 269 1.7 11.3 0.00 0.24 0.00 65 1021.6
20260507121504 38 315 2.6 8.7 0.00 0.24 0.00 66 1021.6
20260507120001 38 263 1.7 8.7 0.00 0.24 0.00 67 1021.5
20260507114600 37 261 1.7 6.1 0.00 0.24 0.00 70 1021.4
20260507113056 36 252 0.9 5.2 0.00 0.24 0.00 72 1021.6
20260507111555 35 154 0.0 7.0 0.00 0.24 0.00 75 1021.6
20260507110052 35 305 1.7 7.0 0.00 0.24 0.00 78 1021.5
20260507104551 34 286 0.0 0.9 0.00 0.24 0.00 79 1021.6
20260507103045 33 296 0.0 5.2 0.00 0.24 0.00 83 1021.8
20260507101546 32 302 0.0 0.0 0.00 0.24 0.00 86 1021.9
20260507100053 31 302 0.0 1.7 0.00 0.24 0.00 88 1022.0